RH
8 9 9 10 11 12 13 16 18 17 17 16 16 18 18 17 17 16 21 24 25 25 25 25 26 28 29 30 30 30 30 32 33
9 10 10 12 15 17 17 17 20 22 24 24 24 23 23 23 23 19 22 24 26 29 30 31 33 34 32 35 36 37 38 38 37
9 10 12 13 16 21 23 22 23 24 24 24 24 22 22 24 26 30 34 35 36 37 36 37 39 41 42 42 40 38 35 34 34
9 9 12 16 18 27 27 32 30 29 28 29 30 30 32 35 36 38 40 40 37 36 37 40 39 38 38 37 36 34 35 35 36
14 14 16 19 21 36 36 41 40 40 38 36 36 36 39 42 41 40 38 34 37 34 23 22 36 44 41 38 36 37 37 36 31
19 20 21 23 29 42 46 49 46 44 42 42 42 44 44 44 44 43 41 42 47 44 34 30 24 35 41 43 42 41 39 37 36
24 26 26 27 33 45 60 54 54 50 47 48 47 47 47 49 50 46 46 42 48 48 43 45 45 43 39 34 32 35 34 35 35
26 27 28 30 29 30 48 64 64 62 55 52 51 50 51 55 60 54 48 46 49 49 44 48 48 46 43 42 40 39 38 38 36
31 32 31 32 30 29 32 51 72 72 67 65 61 61 60 62 64 58 54 54 52 50 34 44 46 41 42 47 46 37 30 27 25
33 33 33 31 30 27 31 35 45 77 80 66 63 66 61 68 63 62 65 60 57 46 25 35 36 43 48 47 31 28 26 26 25
38 38 37 35 33 29 28 37 42 52 74 74 65 59 56 56 55 61 67 65 60 50 39 42 49 52 49 37 32 30 26 21 20
32 33 30 29 27 25 26 27 84 63 66 70 61 58 59 56 59 60 68 70 66 60 52 53 53 52 45 36 33 32 24 22 23
41 39 36 37 30 21 20 42 83 92 82 65 70 66 62 54 56 63 70 74 72 66 57 55 55 49 40 38 35 29 25 25 23
49 49 49 46 37 40 38 32 32 54 86 84 77 74 77 73 68 81 86 83 77 70 63 65 60 50 40 37 32 28 28 27 26
54 53 60 66 54 50 51 55 63 65 80 81 85 90 87 77 78 80 87 87 78 68 74 70 62 47 37 32 31 31 29 27 29
59 59 59 59 69 62 67 72 80 89 94 92 93 87 96 86 82 75 75 72 63 52 44 48 49 39 34 34 34 32 31 32 32
33 47 63 79 70 67 73 83 78 72 79 88 96 98 97 96 95 94 81 61 51 37 38 44 39 36 37 37 35 34 36 37 42
37 40 57 56 55 66 70 69 64 58 66 77 88 90 99 96 87 90 86 49 35 36 44 40 38 41 39 37 36 38 45 50 45
51 46 36 39 51 63 71 66 77 74 72 96 95 90 80 65 56 46 36 37 51 46 42 49 48 43 40 41 47 49 42 34 36
63 41 46 42 50 67 72 80 78 79 93 98 96 86 48 41 37 38 48 55 41 43 56 53 45 42 47 48 37 34 43 46 45
Wind_Speed
28 27 26 25 24 22 22 22 21 21 20 20 21 21 21 21 21 24 23 24 25 25 25 25 26 26 25 25 24 24 24 23 22
27 28 27 26 24 23 23 23 23 23 23 24 23 23 22 23 22 25 24 24 24 24 25 26 26 26 27 26 26 26 26 24 24
28 27 27 26 26 24 23 23 22 22 23 23 23 21 21 19 20 21 21 22 23 24 24 26 27 27 26 26 26 25 25 24 23
28 27 27 26 25 25 23 22 21 22 21 21 21 20 19 18 19 21 22 25 27 29 30 29 28 27 25 26 26 26 25 25 26
26 26 26 25 24 24 23 22 21 21 22 21 20 20 19 20 23 25 27 27 27 27 27 32 33 30 28 27 28 28 28 28 27
24 24 24 24 24 24 23 22 22 22 22 21 20 21 22 24 26 27 27 25 24 25 25 22 25 31 32 32 32 32 31 31 31
24 23 23 23 24 24 24 24 24 24 25 25 25 25 26 27 28 29 27 27 27 27 27 25 23 21 21 26 33 35 35 34 34
26 26 25 24 24 25 27 28 27 27 29 29 29 29 28 28 29 31 30 29 29 29 29 29 28 26 25 26 28 30 31 31 33
26 27 27 26 25 26 26 28 31 32 32 32 32 31 31 32 32 32 33 32 31 31 30 30 30 28 29 30 32 34 34 34 34
26 27 27 27 27 27 27 27 30 32 34 35 35 35 35 35 35 35 35 34 33 33 31 30 30 31 33 34 35 35 35 36 37
27 28 29 29 29 29 29 28 27 30 33 35 37 37 37 37 37 36 36 36 35 34 32 31 32 34 35 36 36 36 38 38 38
29 30 31 32 31 31 31 32 31 31 32 33 36 38 39 39 39 39 38 38 37 36 35 35 36 36 37 37 38 39 39 40 41
30 30 31 30 31 32 31 30 32 36 35 34 36 38 38 39 39 39 39 39 38 39 38 38 38 39 40 40 41 41 41 43 46
30 30 31 31 32 30 31 32 34 35 39 38 38 39 38 39 39 38 39 39 38 39 40 40 41 41 42 43 44 44 45 48 50
31 32 31 32 32 32 32 32 35 38 37 41 44 41 38 39 39 38 40 42 38 38 40 43 43 43 45 46 46 48 51 53 53
35 35 32 34 34 33 34 32 34 36 36 38 42 47 41 40 40 41 40 38 39 42 42 44 45 46 47 48 50 52 55 55 54
35 35 34 35 35 35 34 32 34 35 38 37 33 35 42 42 45 47 40 41 43 43 45 47 48 50 50 52 55 56 56 56 56
36 34 35 37 36 35 35 34 35 37 38 39 39 37 37 46 40 37 39 42 43 44 47 50 51 52 55 57 58 59 59 60 61
35 35 37 37 36 36 35 35 34 36 37 33 38 37 39 40 39 38 40 41 44 47 49 51 53 56 57 58 60 61 62 63 63
39 39 37 36 36 35 36 37 35 34 32 43 41 40 42 42 41 41 42 45 48 50 52 55 56 58 59 60 60 61 62 63 64
Wind_Direction
268 270 270 271 271 270 265 264 265 267 269 271 272 275 280 281 284 284 284 284 286 287 286 286 286 286 285 284 282 281 278 276 277
265 267 268 270 270 269 270 268 265 267 269 272 274 277 279 282 286 285 287 287 287 287 287 286 285 283 282 282 279 278 277 276 274
268 270 271 273 273 271 271 270 269 270 272 273 275 276 279 283 282 285 287 290 292 293 292 290 286 284 283 281 279 275 274 274 273
273 273 274 273 273 272 271 272 273 273 270 271 273 276 279 280 280 283 288 289 290 289 287 285 284 283 282 280 278 276 275 276 278
274 273 272 272 272 272 272 271 270 270 271 271 272 273 274 278 281 287 289 291 294 294 296 284 276 277 280 279 279 279 279 278 277
273 273 272 273 272 271 269 267 266 266 267 267 268 272 275 279 284 286 291 289 295 295 294 301 289 276 275 277 276 278 278 278 279
274 274 275 277 273 267 264 263 264 265 266 266 267 270 275 279 282 284 288 287 289 292 285 287 289 293 293 285 279 278 278 280 281
274 275 277 280 281 278 271 267 264 264 266 268 271 272 275 278 282 286 288 287 286 289 283 280 282 283 286 287 288 286 283 283 282
277 276 278 281 283 284 279 272 270 267 265 266 268 272 274 276 280 283 285 287 289 288 282 277 278 280 284 288 288 287 285 284 283
272 276 279 280 284 285 287 282 277 273 275 275 273 273 275 277 280 282 283 286 288 288 280 275 275 279 284 288 289 289 288 287 285
272 276 279 282 283 283 284 284 280 278 277 276 277 277 278 279 280 281 283 284 285 285 282 279 280 283 287 290 291 291 291 289 288
275 276 279 282 285 282 282 283 282 285 279 280 279 278 279 279 281 283 283 284 284 284 285 284 283 287 289 290 292 293 291 289 289
277 282 284 287 289 289 287 279 278 280 278 280 280 280 281 282 281 283 284 284 285 284 285 286 288 290 291 292 293 293 290 290 290
279 280 284 285 287 291 291 286 284 284 281 281 285 280 280 282 282 283 284 283 284 286 288 289 289 290 291 292 293 291 291 292 291
273 277 281 286 289 288 288 290 290 288 289 282 282 277 277 281 283 284 288 284 286 286 289 287 289 289 290 291 291 292 293 292 291
271 274 279 282 282 287 289 293 295 295 292 292 281 277 275 279 282 283 286 288 287 288 287 287 288 288 290 290 292 293 293 292 291
273 276 279 279 283 286 290 291 292 293 295 298 300 288 282 283 290 280 282 289 290 289 289 291 291 291 291 293 294 294 292 291 291
272 275 277 279 283 287 287 293 290 289 290 291 292 293 283 289 293 289 288 289 290 290 291 291 292 293 294 295 295 294 293 293 292
268 273 276 280 285 286 290 290 294 291 292 284 288 291 291 291 291 292 291 290 292 293 292 292 294 296 297 296 294 295 295 296 295
266 271 274 280 283 286 287 289 291 295 288 280 295 292 293 294 295 295 294 295 294 294 295 296 296 296 295 294 294 294 294 294 293